FW4559 Weather Reports


time (UTC)temp
F
wind
direction
speed
knots
gust
knots
rain 1hr
in
rain 24hr
in
rain mn
in
humidity
%
barometer
mb
20260904030553 68 200 0.0 0.0 0.00 0.00 0.00 94 1017.0
20260904030105 68 200 0.0 0.0 0.00 0.00 0.00 94 1017.1
20260904025553 68 200 0.0 0.0 0.00 0.00 0.00 94 1017.2
20260904025052 68 200 0.0 0.0 0.00 0.00 0.00 94 1017.1
20260904024553 68 200 0.0 0.0 0.00 0.00 0.00 94 1017.2
20260904024054 68 200 0.0 0.0 0.00 0.00 0.00 93 1017.2
20260904023552 68 200 0.0 0.9 0.00 0.00 0.00 93 1017.1
20260904023054 69 200 0.0 0.9 0.00 0.00 0.00 93 1017.0
20260904022551 69 229 0.0 0.9 0.00 0.00 0.00 93 1017.1
20260904022051 69 229 0.0 0.0 0.00 0.00 0.00 92 1017.0
20260904021550 69 229 0.0 0.9 0.00 0.00 0.00 92 1017.0
20260904021050 69 233 0.0 0.9 0.00 0.00 0.00 92 1016.9
20260904020548 69 218 0.0 0.0 0.00 0.00 0.00 92 1017.1
20260904020050 69 110 0.0 0.0 0.00 0.00 0.00 92 1017.1
20260904015550 70 110 0.0 0.0 0.00 0.00 0.00 92 1017.1
20260904015051 70 110 0.0 0.0 0.00 0.00 0.00 91 1017.0
20260904014553 70 110 0.0 0.0 0.00 0.00 0.00 91 1016.9
20260904014048 70 110 0.0 0.0 0.00 0.00 0.00 91 1016.9
20260904013548 71 110 0.0 0.0 0.00 0.00 0.00 91 1016.9
20260904013049 71 110 0.0 0.0 0.00 0.00 0.00 91 1016.9
20260904012551 71 110 0.0 0.0 0.00 0.00 0.00 90 1016.8
20260904012048 71 110 0.0 0.0 0.00 0.00 0.00 90 1016.7
20260904011547 71 110 0.0 0.9 0.00 0.00 0.00 90 1016.6
20260904011050 72 110 0.0 0.9 0.00 0.00 0.00 90 1016.6
20260904010548 72 110 0.0 0.0 0.00 0.00 0.00 89 1016.6
20260904010049 72 110 0.0 0.0 0.00 0.00 0.00 89 1016.6
20260904005550 72 110 0.0 0.9 0.00 0.00 0.00 88 1016.6
20260904005047 73 110 0.0 0.9 0.00 0.00 0.00 88 1016.4
20260904004547 73 110 0.0 0.0 0.00 0.00 0.00 87 1016.3
20260904004051 73 110 0.0 0.9 0.00 0.00 0.00 87 1016.3
20260904003549 73 110 0.0 0.9 0.00 0.00 0.00 87 1016.1
20260904003047 74 110 0.0 1.7 0.00 0.00 0.00 86 1016.2
20260904002546 74 96 0.0 1.7 0.00 0.00 0.00 86 1016.1
20260904002046 75 115 0.0 0.9 0.00 0.00 0.00 85 1015.9
20260904001544 75 115 0.0 0.9 0.00 0.00 0.00 84 1015.8
20260904001044 76 87 0.0 0.0 0.00 0.00 0.00 83 1015.7
20260904000546 76 87 0.0 0.9 0.00 0.00 0.00 82 1015.7
20260904000047 77 124 0.0 0.9 0.00 0.00 0.00 81 1015.7
20260903235548 78 124 0.0 0.9 0.00 0.00 0.00 78 1015.7
20260903235044 79 200 0.0 0.0 0.00 0.00 0.00 76 1015.7
20260903234543 79 200 0.0 0.0 0.00 0.00 0.00 75 1015.6
20260903234044 79 200 0.0 0.0 0.00 0.00 0.00 74 1015.6
20260903233544 80 200 0.0 0.9 0.00 0.00 0.00 73 1015.5
20260903233048 80 200 0.0 0.9 0.00 0.00 0.00 72 1015.3
20260903232542 80 212 0.0 1.7 0.00 0.00 0.00 72 1015.4
20260903232045 80 227 0.0 3.5 0.00 0.00 0.00 71 1015.3
20260903231543 80 150 1.7 3.5 0.00 0.00 0.00 71 1015.3
20260903231041 81 200 0.0 2.6 0.00 0.00 0.00 70 1015.4
20260903230542 81 230 0.9 2.6 0.00 0.00 0.00 70 1015.4
20260903230047 81 192 0.9 4.3 0.00 0.00 0.00 70 1015.3
20260903225542 82 184 1.7 4.3 0.00 0.00 0.00 69 1015.3
20260903225041 82 162 0.0 2.6 0.00 0.00 0.00 68 1015.3
20260903224541 82 199 0.9 1.7 0.00 0.00 0.00 68 1015.3
20260903224041 82 208 0.0 1.7 0.00 0.00 0.00 67 1015.3
20260903223542 82 193 0.0 4.3 0.00 0.00 0.00 67 1015.3
20260903223041 82 176 0.9 4.3 0.00 0.00 0.00 66 1015.2
20260903222545 83 187 1.7 4.3 0.00 0.00 0.00 64 1015.1
20260903222040 83 181 0.9 4.3 0.00 0.00 0.00 63 1015.1
20260903221540 83 208 0.9 3.5 0.00 0.00 0.00 63 1015.2
20260903221039 83 214 0.9 3.5 0.00 0.00 0.00 62 1015.1
20260903220539 83 184 0.9 4.3 0.00 0.00 0.00 61 1015.1
20260903220044 84 214 0.9 5.2 0.00 0.00 0.00 60 1015.1
20260903215541 84 143 1.7 5.2 0.00 0.00 0.00 59 1015.1
20260903215037 84 165 0.9 2.6 0.00 0.00 0.00 58 1015.2
20260903214543 84 193 0.0 4.3 0.00 0.00 0.00 56 1015.3
20260903214037 85 169 0.9 4.3 0.00 0.00 0.00 57 1015.2
20260903213536 85 207 1.7 4.3 0.00 0.00 0.00 57 1015.4
20260903213036 85 183 1.7 3.5 0.00 0.00 0.00 56 1015.4
20260903212537 85 162 0.9 4.3 0.00 0.00 0.00 57 1015.2
20260903212037 85 129 0.0 2.6 0.00 0.00 0.00 56 1015.4
20260903211537 85 185 0.9 4.3 0.00 0.00 0.00 57 1015.5
20260903211034 85 207 1.7 4.3 0.00 0.00 0.00 56 1015.5
20260903210534 85 179 1.7 5.2 0.00 0.00 0.00 55 1015.6
20260903210041 85 221 1.7 5.2 0.00 0.00 0.00 56 1015.6
20260903205533 85 203 1.7 4.3 0.00 0.00 0.00 56 1015.6
20260903205034 85 229 1.7 5.2 0.00 0.00 0.00 55 1015.6
20260903204533 86 160 2.6 5.2 0.00 0.00 0.00 55 1015.6
20260903204034 86 121 1.7 6.1 0.00 0.00 0.00 54 1015.6
20260903203531 86 191 1.7 6.1 0.00 0.00 0.00 55 1015.6
20260903203031 87 171 1.7 5.2 0.00 0.00 0.00 55 1015.6
20260903202532 87 191 2.6 5.2 0.00 0.00 0.00 54 1015.6
20260903202031 87 166 1.7 5.2 0.00 0.00 0.00 54 1015.7
20260903201533 87 195 0.9 7.0 0.00 0.00 0.00 56 1015.8
20260903201028 87 187 2.6 7.0 0.00 0.00 0.00 55 1015.9
20260903200529 87 186 2.6 7.0 0.00 0.00 0.00 53 1015.9
20260903200029 87 222 1.7 6.1 0.00 0.00 0.00 56 1015.9
20260903195528 87 184 0.9 8.7 0.00 0.00 0.00 55 1016.0
20260903195028 87 143 1.7 8.7 0.00 0.00 0.00 53 1016.0
20260903194526 88 185 1.7 5.2 0.00 0.00 0.00 55 1016.2
20260903194026 88 217 1.7 4.3 0.00 0.00 0.00 55 1016.1
20260903193525 88 158 0.0 5.2 0.00 0.00 0.00 54 1016.2
20260903193025 88 73 0.0 7.0 0.00 0.00 0.00 54 1016.2
20260903192525 89 134 1.7 6.1 0.00 0.00 0.00 53 1016.2
20260903192028 89 167 1.7 7.0 0.00 0.00 0.00 53 1016.2
20260903191529 89 207 0.9 7.0 0.00 0.00 0.00 54 1016.2
20260903191024 90 195 0.9 4.3 0.00 0.00 0.00 54 1016.3
20260903190524 90 181 0.9 4.3 0.00 0.00 0.00 54 1016.3
20260903190024 90 186 0.9 5.2 0.00 0.00 0.00 56 1016.3
20260903185522 90 94 1.7 5.2 0.00 0.00 0.00 54 1016.4
20260903185026 89 201 0.9 3.5 0.00 0.00 0.00 56 1016.4
20260903184525 89 169 0.9 5.2 0.00 0.00 0.00 55 1016.5
20260903184021 88 189 2.6 5.2 0.00 0.00 0.00 56 1016.5
20260903183521 89 198 1.7 5.2 0.00 0.00 0.00 55 1016.5
20260903183020 89 214 1.7 5.2 0.00 0.00 0.00 57 1016.6
20260903182522 89 139 1.7 5.2 0.00 0.00 0.00 58 1016.5
20260903182020 89 239 0.9 5.2 0.00 0.00 0.00 55 1016.8
20260903181519 89 195 1.7 3.5 0.00 0.00 0.00 54 1016.8
20260903181019 89 193 0.9 3.5 0.00 0.00 0.00 56 1016.9
20260903180519 89 200 0.9 7.8 0.00 0.00 0.00 54 1016.9
20260903180018 88 182 0.9 7.8 0.00 0.00 0.00 57 1016.9
20260903175518 89 235 3.5 7.0 0.00 0.00 0.00 52 1017.0
20260903175017 89 175 0.9 5.2 0.00 0.00 0.00 57 1017.0
20260903174516 90 182 1.7 4.3 0.00 0.00 0.00 54 1017.1
20260903174016 90 245 0.0 2.6 0.00 0.00 0.00 52 1017.1
20260903173514 91 127 0.0 1.7 0.00 0.00 0.00 49 1017.3
20260903173018 90 105 0.0 2.6 0.00 0.00 0.00 50 1017.3
20260903172515 89 226 0.9 2.6 0.00 0.00 0.00 49 1017.2
20260903172012 88 349 0.0 2.6 0.00 0.00 0.00 52 1017.3
20260903171511 88 348 0.0 2.6 0.00 0.00 0.00 52 1017.3
20260903171011 88 72 0.9 2.6 0.00 0.00 0.00 50 1017.4
20260903170510 88 139 0.0 2.6 0.00 0.00 0.00 53 1017.4
20260903170012 89 7 0.0 2.6 0.00 0.00 0.00 53 1017.5
20260903165509 89 153 0.0 0.9 0.00 0.00 0.00 55 1017.5
20260903165008 88 154 0.0 1.7 0.00 0.00 0.00 56 1017.6
20260903164509 87 70 0.0 2.6 0.00 0.00 0.00 53 1017.6
20260903164007 88 150 0.9 2.6 0.00 0.00 0.00 53 1017.7
20260903163507 87 212 0.0 2.6 0.00 0.00 0.00 56 1017.7
20260903163005 86 54 0.0 2.6 0.00 0.00 0.00 55 1017.8
20260903162504 86 101 0.9 2.6 0.00 0.00 0.00 55 1017.9
20260903162004 85 210 0.9 2.6 0.00 0.00 0.00 55 1017.8
20260903161503 84 111 0.9 3.5 0.00 0.00 0.00 59 1017.8
20260903161003 84 95 0.9 3.5 0.00 0.00 0.00 58 1017.8
20260903160504 85 131 0.0 5.2 0.00 0.00 0.00 58 1017.8
20260903160003 85 98 0.9 5.2 0.00 0.00 0.00 57 1017.9
20260903155601 86 160 0.0 2.6 0.00 0.00 0.00 57 1017.9
20260903155001 87 345 0.0 1.7 0.00 0.00 0.00 59 1018.0
20260903154600 86 92 0.0 2.6 0.00 0.00 0.00 58 1018.1
20260903154100 86 354 0.0 2.6 0.00 0.00 0.00 58 1018.1
20260903153559 86 184 0.0 1.7 0.00 0.00 0.00 59 1018.1
20260903153056 85 103 0.0 2.6 0.00 0.00 0.00 62 1018.2
20260903152555 84 204 0.0 2.6 0.00 0.00 0.00 64 1018.1
20260903152058 84 97 0.0 1.7 0.00 0.00 0.00 64 1018.2
20260903151555 83 13 0.0 4.3 0.00 0.00 0.00 64 1018.1
20260903151054 84 11 0.9 4.3 0.00 0.00 0.00 63 1018.1
20260903150554 82 116 0.0 1.7 0.00 0.00 0.00 67 1018.0
20260903150055 81 101 0.0 2.6 0.00 0.00 0.00 65 1018.1
20260903145554 81 36 0.9 2.6 0.00 0.00 0.00 64 1018.0
20260903145053 81 102 0.0 2.6 0.00 0.00 0.00 67 1018.0
20260903144553 81 55 0.0 2.6 0.00 0.00 0.00 66 1018.1
20260903144055 81 347 0.0 1.7 0.00 0.00 0.00 68 1018.0
20260903143552 81 346 0.0 4.3 0.00 0.00 0.00 67 1018.1
20260903143107 82 359 1.7 4.3 0.00 0.00 0.00 63 1018.1
20260903142552 84 352 0.0 1.7 0.00 0.00 0.00 64 1018.0
20260903142051 84 244 0.0 0.9 0.00 0.00 0.00 67 1018.1
20260903141550 83 244 0.0 0.9 0.00 0.00 0.00 66 1018.0
20260903141050 82 244 0.0 0.9 0.00 0.00 0.00 71 1018.1
20260903140548 82 244 0.0 0.9 0.00 0.00 0.00 73 1018.0
20260903140046 82 244 0.0 0.9 0.00 0.00 0.00 72 1018.0
20260903135546 81 244 0.0 0.0 0.00 0.00 0.00 75 1018.0
20260903135044 81 244 0.0 0.9 0.00 0.00 0.00 76 1018.1
20260903134542 80 244 0.0 0.9 0.00 0.00 0.00 79 1018.0
20260903134040 78 244 0.0 0.9 0.00 0.00 0.00 82 1018.1
20260903133539 78 244 0.0 0.0 0.00 0.00 0.00 84 1018.1
20260903133038 77 244 0.0 0.0 0.00 0.00 0.00 86 1018.1
20260903132537 76 244 0.0 0.0 0.00 0.00 0.00 88 1018.1
20260903132035 75 244 0.0 0.0 0.00 0.00 0.00 91 1018.2
20260903131534 73 244 0.0 0.0 0.00 0.00 0.00 93 1018.2
20260903131032 72 244 0.0 0.0 0.00 0.00 0.00 96 1018.3
20260903130531 71 244 0.0 0.0 0.00 0.00 0.00 95 1018.3
20260903130028 70 244 0.0 0.0 0.00 0.00 0.00 95 1018.4
20260903125528 68 244 0.0 0.0 0.00 0.00 0.00 96 1018.4
20260903125028 68 244 0.0 0.0 0.00 0.00 0.00 96 1018.5
20260903124534 69 244 0.0 0.0 0.00 0.00 0.00 96 1018.4
20260903124025 68 244 0.0 0.0 0.00 0.00 0.00 96 1018.5
20260903123526 67 244 0.0 0.0 0.00 0.00 0.00 96 1018.4
20260903123036 66 244 0.0 0.0 0.00 0.00 0.00 96 1018.4
20260903122525 64 244 0.0 0.0 0.00 0.00 0.00 96 1018.4
20260903122025 63 244 0.0 0.0 0.00 0.00 0.00 96 1018.4
20260903121532 63 244 0.0 0.0 0.00 0.00 0.00 96 1018.3
20260903121027 63 244 0.0 0.0 0.00 0.00 0.00 96 1018.3
20260903120524 63 244 0.0 0.0 0.00 0.00 0.00 96 1018.2
20260903120024 63 244 0.0 0.0 0.00 0.00 0.00 96 1018.1
20260903115523 62 244 0.0 0.0 0.00 0.00 0.00 96 1018.1
20260903115022 62 244 0.0 0.0 0.00 0.00 0.00 96 1018.1
20260903114521 62 244 0.0 0.0 0.00 0.00 0.00 96 1017.9
20260903114020 62 244 0.0 0.0 0.00 0.00 0.00 96 1017.9
20260903113520 62 244 0.0 0.0 0.00 0.00 0.00 96 1017.8
20260903113033 62 244 0.0 0.0 0.00 0.00 0.00 96 1017.8
20260903112518 62 244 0.0 0.0 0.00 0.00 0.00 96 1017.7
20260903112018 62 244 0.0 0.0 0.00 0.00 0.00 96 1017.7
20260903111520 62 244 0.0 0.0 0.00 0.00 0.00 96 1017.6
20260903111017 62 244 0.0 0.0 0.00 0.00 0.00 96 1017.6
20260903110516 62 244 0.0 0.0 0.00 0.00 0.00 96 1017.6
20260903110016 62 244 0.0 0.0 0.00 0.00 0.00 96 1017.5
20260903105515 62 244 0.0 0.0 0.00 0.00 0.00 96 1017.5
20260903105015 62 244 0.0 0.0 0.00 0.00 0.00 96 1017.5
20260903104514 62 244 0.0 0.0 0.00 0.00 0.00 96 1017.4
20260903104012 63 244 0.0 0.0 0.00 0.00 0.00 96 1017.4
20260903103513 63 244 0.0 0.0 0.00 0.00 0.00 96 1017.4
20260903103013 63 244 0.0 0.0 0.00 0.00 0.00 96 1017.4
20260903102511 62 244 0.0 0.0 0.00 0.00 0.00 96 1017.3
20260903102016 62 244 0.0 0.0 0.00 0.00 0.00 96 1017.3
20260903101512 62 244 0.0 0.0 0.00 0.00 0.00 96 1017.3
20260903101012 62 244 0.0 0.0 0.00 0.00 0.00 96 1017.3
20260903100512 62 244 0.0 0.0 0.00 0.00 0.00 96 1017.4
20260903100019 62 244 0.0 0.0 0.00 0.00 0.00 96 1017.3
20260903095512 62 244 0.0 0.0 0.00 0.00 0.00 96 1017.4
20260903095014 63 244 0.0 0.0 0.00 0.00 0.00 96 1017.4
20260903094509 63 244 0.0 0.0 0.00 0.00 0.00 96 1017.4
20260903094012 63 244 0.0 0.0 0.00 0.00 0.00 96 1017.4
20260903093508 63 244 0.0 0.0 0.00 0.00 0.00 96 1017.4
20260903093011 63 244 0.0 0.0 0.00 0.00 0.00 96 1017.4
20260903092509 63 244 0.0 0.0 0.00 0.00 0.00 96 1017.4
20260903092007 63 244 0.0 0.0 0.00 0.00 0.00 96 1017.4
20260903091516 64 244 0.0 0.0 0.00 0.00 0.00 96 1017.3
20260903091005 64 244 0.0 0.0 0.00 0.00 0.00 96 1017.4
20260903090505 64 244 0.0 0.0 0.00 0.00 0.00 96 1017.3
20260903090004 64 244 0.0 0.0 0.00 0.00 0.00 96 1017.4
20260903085504 64 244 0.0 0.0 0.00 0.00 0.00 96 1017.3
20260903085004 64 244 0.0 0.0 0.00 0.00 0.00 96 1017.3
20260903084508 64 244 0.0 0.0 0.00 0.00 0.00 96 1017.2
20260903084003 64 244 0.0 0.0 0.00 0.00 0.00 96 1017.1
20260903083504 64 244 0.0 0.0 0.00 0.00 0.00 96 1017.2
20260903083003 64 244 0.0 0.0 0.00 0.00 0.00 96 1017.2
20260903082504 64 244 0.0 0.0 0.00 0.00 0.00 96 1017.0
20260903082002 64 244 0.0 0.0 0.00 0.00 0.00 96 1017.0
20260903081506 64 244 0.0 0.0 0.00 0.00 0.00 96 1017.1
20260903081001 64 244 0.0 0.9 0.00 0.00 0.00 96 1017.1
20260903080500 64 244 0.0 0.9 0.00 0.00 0.00 96 1017.1
20260903080001 64 244 0.0 0.0 0.00 0.00 0.00 96 1017.1
20260903075501 64 244 0.0 0.0 0.00 0.00 0.00 96 1017.1
20260903075000 64 244 0.0 0.9 0.00 0.00 0.00 96 1017.0
20260903074600 64 244 0.0 0.9 0.00 0.00 0.00 96 1016.9
20260903074100 64 103 0.0 0.0 0.00 0.00 0.00 96 1016.9
20260903073559 65 103 0.0 0.0 0.00 0.00 0.00 96 1016.9
20260903073057 65 103 0.0 0.0 0.00 0.00 0.00 96 1016.9
20260903072601 65 103 0.0 0.0 0.00 0.00 0.00 96 1016.8
20260903072056 65 103 0.0 0.0 0.00 0.00 0.00 96 1016.8
20260903071556 65 103 0.0 0.0 0.00 0.00 0.00 96 1016.8
20260903071055 65 103 0.0 0.0 0.00 0.00 0.00 96 1016.7
20260903070554 66 103 0.0 0.0 0.00 0.00 0.00 96 1016.8
20260903070054 66 103 0.0 0.0 0.00 0.00 0.00 96 1016.8
20260903065556 66 103 0.0 0.9 0.00 0.00 0.00 96 1016.7
20260903065053 66 103 0.0 1.7 0.00 0.00 0.00 96 1016.8
20260903064553 66 103 0.0 1.7 0.00 0.00 0.00 96 1016.8
20260903064052 66 117 0.0 0.0 0.00 0.00 0.00 96 1016.9
20260903063551 66 117 0.0 0.0 0.00 0.00 0.00 96 1016.8
20260903063051 66 117 0.0 0.0 0.00 0.00 0.00 96 1016.9
20260903062551 66 117 0.0 0.0 0.00 0.00 0.00 96 1016.8
20260903062051 66 117 0.0 0.0 0.00 0.00 0.00 96 1016.8
20260903061554 66 117 0.0 0.9 0.00 0.00 0.00 96 1016.9
20260903061049 66 117 0.0 0.9 0.00 0.00 0.00 96 1016.9
20260903060549 66 117 0.0 0.0 0.00 0.00 0.00 96 1017.0
20260903060049 66 117 0.0 0.0 0.00 0.00 0.00 96 1017.0
20260903055550 66 117 0.0 0.0 0.00 0.00 0.00 96 1017.0
20260903055049 66 117 0.0 0.0 0.00 0.00 0.00 96 1017.1
20260903054549 66 117 0.0 0.0 0.00 0.00 0.00 96 1017.1
20260903054048 66 117 0.0 0.0 0.00 0.00 0.00 96 1017.1
20260903053547 66 117 0.0 0.0 0.00 0.00 0.00 96 1017.1
20260903053047 66 117 0.0 0.0 0.00 0.00 0.00 96 1017.1
20260903052546 66 117 0.0 0.0 0.00 0.00 0.00 96 1017.3
20260903052046 66 117 0.0 0.0 0.00 0.00 0.00 96 1017.2
20260903051545 66 117 0.0 0.0 0.00 0.00 0.00 96 1017.3
20260903051044 66 117 0.0 0.0 0.00 0.00 0.00 96 1017.3
20260903050546 67 117 0.0 0.0 0.00 0.00 0.00 96 1017.4
20260903050043 67 117 0.0 0.0 0.00 0.00 0.00 95 1017.4
20260903045544 67 117 0.0 0.0 0.00 0.00 0.00 95 1017.4
20260903045043 67 117 0.0 0.0 0.00 0.00 0.00 95 1017.5
20260903044542 68 117 0.0 0.0 0.00 0.00 0.00 96 1017.4
20260903044044 68 117 0.0 0.0 0.00 0.00 0.00 96 1017.4
20260903043540 68 117 0.0 0.0 0.00 0.00 0.00 95 1017.4
20260903043044 67 117 0.0 0.0 0.00 0.00 0.00 96 1017.4
20260903042539 67 117 0.0 0.0 0.00 0.00 0.00 96 1017.4
20260903042040 67 117 0.0 0.0 0.00 0.00 0.00 95 1017.5
20260903041543 67 117 0.0 0.0 0.00 0.00 0.00 95 1017.6
20260903041036 67 117 0.0 0.0 0.00 0.00 0.00 95 1017.6
20260903040536 67 117 0.0 0.0 0.00 0.00 0.00 95 1017.6
20260903040035 68 117 0.0 0.0 0.00 0.00 0.00 95 1017.6
20260903035534 68 117 0.0 0.0 0.00 0.00 0.00 95 1017.6
20260903035034 68 117 0.0 0.0 0.00 0.00 0.00 95 1017.7
20260903034542 68 117 0.0 0.0 0.00 0.00 0.00 95 1017.7
20260903034034 68 117 0.0 0.0 0.00 0.00 0.00 95 1017.8
20260903033536 68 117 0.0 0.0 0.00 0.00 0.00 95 1017.8
20260903033033 68 117 0.0 0.0 0.00 0.00 0.00 95 1017.9
20260903032535 68 117 0.0 0.0 0.00 0.00 0.00 95 1018.1
20260903032034 68 117 0.0 0.0 0.00 0.00 0.00 95 1018.2
20260903031538 68 117 0.0 0.0 0.00 0.00 0.00 95 1018.1
20260903031034 68 117 0.0 0.0 0.00 0.00 0.00 95 1018.1